| time (UTC) | temp F | wind direction | speed knots | gust knots | rain 1hr in | rain 24hr in | rain mn in | humidity % | barometer mb |
| 20260506051318 | 60 | 60 | 0.0 | 0.0 | 0.00 | 0.00 | 0.00 | 64 | 1012.4 |
| 20260506050829 | 61 | 60 | 0.0 | 0.0 | 0.00 | 0.00 | 0.00 | 63 | 1012.4 |
| 20260506050319 | 61 | 60 | 0.0 | 0.0 | 0.00 | 0.00 | 0.00 | 63 | 1012.3 |
| 20260506044823 | 62 | 60 | 0.0 | 0.9 | 0.00 | 0.00 | 0.00 | 62 | 1012.1 |
| 20260506044318 | 62 | 60 | 0.0 | 0.9 | 0.00 | 0.00 | 0.00 | 60 | 1011.9 |
| 20260506043833 | 62 | 60 | 0.0 | 0.9 | 0.00 | 0.00 | 0.00 | 59 | 1011.9 |
| 20260506043323 | 62 | 24 | 0.0 | 0.0 | 0.00 | 0.00 | 0.00 | 59 | 1011.8 |
| 20260506042828 | 63 | 21 | 0.0 | 0.0 | 0.00 | 0.00 | 0.00 | 59 | 1011.7 |
| 20260506042319 | 63 | 21 | 0.0 | 0.9 | 0.00 | 0.00 | 0.00 | 57 | 1011.6 |
| 20260506041830 | 64 | 21 | 0.0 | 0.9 | 0.00 | 0.00 | 0.00 | 56 | 1011.5 |
| 20260506041324 | 65 | 9 | 0.0 | 0.9 | 0.00 | 0.00 | 0.00 | 54 | 1011.5 |
| 20260506040837 | 65 | 5 | 0.0 | 0.9 | 0.00 | 0.00 | 0.00 | 52 | 1011.4 |
| 20260506040326 | 66 | 5 | 0.0 | 0.9 | 0.00 | 0.00 | 0.00 | 52 | 1011.3 |
| 20260506035819 | 66 | 5 | 0.0 | 2.6 | 0.00 | 0.00 | 0.00 | 51 | 1011.2 |
| 20260506035329 | 67 | 3 | 0.9 | 2.6 | 0.00 | 0.00 | 0.00 | 50 | 1011.1 |
| 20260506034819 | 67 | 295 | 0.0 | 0.9 | 0.00 | 0.00 | 0.00 | 50 | 1011.0 |
| 20260506034326 | 68 | 295 | 0.0 | 1.7 | 0.00 | 0.00 | 0.00 | 49 | 1010.9 |
| 20260506033822 | 68 | 295 | 0.0 | 2.6 | 0.00 | 0.00 | 0.00 | 49 | 1010.8 |
| 20260506033352 | 68 | 295 | 0.9 | 2.6 | 0.00 | 0.00 | 0.00 | 48 | 1010.8 |
| 20260506032824 | 68 | 291 | 0.0 | 0.9 | 0.00 | 0.00 | 0.00 | 48 | 1010.7 |
| 20260506032335 | 69 | 291 | 0.0 | 1.7 | 0.00 | 0.00 | 0.00 | 48 | 1010.7 |
| 20260506031845 | 69 | 328 | 0.0 | 1.7 | 0.00 | 0.00 | 0.00 | 47 | 1010.6 |
| 20260506031353 | 70 | 309 | 0.0 | 0.9 | 0.00 | 0.00 | 0.00 | 46 | 1010.6 |
| 20260506030823 | 70 | 309 | 0.0 | 0.9 | 0.00 | 0.00 | 0.00 | 46 | 1010.4 |
| 20260506030333 | 71 | 311 | 0.0 | 0.9 | 0.00 | 0.00 | 0.00 | 45 | 1010.4 |
| 20260506025827 | 71 | 282 | 0.0 | 1.7 | 0.00 | 0.00 | 0.00 | 44 | 1010.3 |
| 20260506025338 | 72 | 286 | 0.0 | 1.7 | 0.00 | 0.00 | 0.00 | 43 | 1010.2 |
| 20260506024848 | 73 | 288 | 0.0 | 0.9 | 0.00 | 0.00 | 0.00 | 43 | 1010.1 |
| 20260506024322 | 73 | 288 | 0.0 | 1.7 | 0.00 | 0.00 | 0.00 | 42 | 1009.9 |
| 20260506023852 | 74 | 300 | 0.0 | 1.7 | 0.00 | 0.00 | 0.00 | 40 | 1009.9 |
| 20260506023319 | 75 | 265 | 0.0 | 1.7 | 0.00 | 0.00 | 0.00 | 40 | 1009.9 |
| 20260506022827 | 75 | 281 | 0.0 | 2.6 | 0.00 | 0.00 | 0.00 | 37 | 1009.8 |
| 20260506022336 | 75 | 327 | 0.9 | 4.3 | 0.00 | 0.00 | 0.00 | 36 | 1009.7 |
| 20260506021827 | 75 | 316 | 0.9 | 4.3 | 0.00 | 0.00 | 0.00 | 37 | 1009.7 |
| 20260506021325 | 75 | 344 | 1.7 | 3.5 | 0.00 | 0.00 | 0.00 | 36 | 1009.7 |
| 20260506020835 | 76 | 348 | 1.7 | 3.5 | 0.00 | 0.00 | 0.00 | 36 | 1009.6 |
| 20260506020325 | 76 | 3 | 0.9 | 3.5 | 0.00 | 0.00 | 0.00 | 36 | 1009.5 |
| 20260506015830 | 76 | 357 | 1.7 | 3.5 | 0.00 | 0.00 | 0.00 | 34 | 1009.4 |
| 20260506015320 | 76 | 9 | 1.7 | 6.1 | 0.00 | 0.00 | 0.00 | 34 | 1009.5 |
| 20260506014829 | 77 | 353 | 1.7 | 6.1 | 0.00 | 0.00 | 0.00 | 34 | 1009.4 |
| 20260506014322 | 77 | 10 | 1.7 | 4.3 | 0.00 | 0.00 | 0.00 | 35 | 1009.4 |
| 20260506013832 | 77 | 327 | 1.7 | 5.2 | 0.00 | 0.00 | 0.00 | 35 | 1009.4 |
| 20260506013343 | 77 | 320 | 1.7 | 5.2 | 0.00 | 0.00 | 0.00 | 35 | 1009.3 |
| 20260506012836 | 78 | 3 | 2.6 | 5.2 | 0.00 | 0.00 | 0.00 | 36 | 1009.2 |
| 20260506012346 | 78 | 295 | 0.9 | 2.6 | 0.00 | 0.00 | 0.00 | 39 | 1009.2 |
| 20260506011836 | 78 | 267 | 0.9 | 4.3 | 0.00 | 0.00 | 0.00 | 38 | 1009.2 |
| 20260506011330 | 78 | 310 | 0.9 | 4.3 | 0.00 | 0.00 | 0.00 | 38 | 1009.2 |
| 20260506010841 | 78 | 309 | 0.9 | 1.7 | 0.00 | 0.00 | 0.00 | 40 | 1009.2 |
| 20260506010333 | 78 | 300 | 0.9 | 3.5 | 0.00 | 0.00 | 0.00 | 39 | 1009.2 |
| 20260506005827 | 78 | 157 | 0.0 | 3.5 | 0.00 | 0.00 | 0.00 | 40 | 1009.2 |
| 20260506005335 | 78 | 300 | 0.9 | 3.5 | 0.00 | 0.00 | 0.00 | 39 | 1009.2 |
| 20260506004824 | 78 | 317 | 0.9 | 3.5 | 0.00 | 0.00 | 0.00 | 40 | 1009.2 |
| 20260506004351 | 78 | 285 | 0.9 | 3.5 | 0.00 | 0.00 | 0.00 | 39 | 1009.1 |
| 20260506003819 | 78 | 16 | 1.7 | 3.5 | 0.00 | 0.00 | 0.00 | 40 | 1009.1 |
| 20260506003329 | 78 | 295 | 0.9 | 2.6 | 0.00 | 0.00 | 0.00 | 40 | 1009.1 |
| 20260506002821 | 78 | 309 | 0.9 | 3.5 | 0.00 | 0.00 | 0.00 | 40 | 1009.1 |
| 20260506002331 | 78 | 295 | 0.9 | 3.5 | 0.00 | 0.00 | 0.00 | 42 | 1009.1 |
| 20260506001842 | 78 | 338 | 0.9 | 4.3 | 0.00 | 0.00 | 0.00 | 42 | 1009.1 |
| 20260506001328 | 78 | 3 | 2.6 | 4.3 | 0.00 | 0.00 | 0.00 | 41 | 1009.1 |
| 20260506000818 | 78 | 7 | 1.7 | 3.5 | 0.00 | 0.00 | 0.00 | 42 | 1009.1 |
| 20260506000329 | 78 | 276 | 1.7 | 2.6 | 0.00 | 0.00 | 0.00 | 42 | 1009.1 |
| 20260505235820 | 78 | 16 | 0.9 | 3.5 | 0.00 | 0.00 | 0.00 | 42 | 1009.1 |
| 20260505235329 | 78 | 313 | 1.7 | 3.5 | 0.00 | 0.00 | 0.00 | 41 | 1009.1 |
| 20260505234823 | 78 | 6 | 0.9 | 3.5 | 0.00 | 0.00 | 0.00 | 40 | 1009.1 |
| 20260505234328 | 79 | 5 | 0.9 | 4.3 | 0.00 | 0.00 | 0.00 | 41 | 1009.1 |
| 20260505233819 | 79 | 74 | 1.7 | 4.3 | 0.00 | 0.00 | 0.00 | 40 | 1009.1 |
| 20260505233329 | 79 | 290 | 0.9 | 3.5 | 0.00 | 0.00 | 0.00 | 40 | 1009.2 |
| 20260505232822 | 79 | 344 | 1.7 | 3.5 | 0.00 | 0.00 | 0.00 | 40 | 1009.2 |
| 20260505232351 | 79 | 163 | 0.9 | 3.5 | 0.00 | 0.00 | 0.00 | 41 | 1009.2 |
| 20260505231819 | 78 | 285 | 1.7 | 4.3 | 0.00 | 0.00 | 0.00 | 41 | 1009.3 |
| 20260505231334 | 78 | 10 | 1.7 | 5.2 | 0.00 | 0.00 | 0.00 | 42 | 1009.4 |
| 20260505230845 | 78 | 5 | 3.5 | 5.2 | 0.00 | 0.00 | 0.00 | 43 | 1009.4 |
| 20260505230333 | 78 | 326 | 1.7 | 5.2 | 0.00 | 0.00 | 0.00 | 42 | 1009.4 |
| 20260505225826 | 79 | 23 | 1.7 | 5.2 | 0.00 | 0.00 | 0.00 | 41 | 1009.5 |
| 20260505225336 | 79 | 18 | 1.7 | 4.3 | 0.00 | 0.00 | 0.00 | 42 | 1009.6 |
| 20260505224830 | 79 | 324 | 1.7 | 7.0 | 0.00 | 0.00 | 0.00 | 41 | 1009.7 |
| 20260505224322 | 78 | 305 | 1.7 | 7.0 | 0.00 | 0.00 | 0.00 | 42 | 1009.7 |
| 20260505223852 | 78 | 305 | 1.7 | 7.0 | 0.00 | 0.00 | 0.00 | 43 | 1009.7 |
| 20260505223322 | 78 | 10 | 2.6 | 7.0 | 0.00 | 0.00 | 0.00 | 43 | 1009.8 |
| 20260505222836 | 77 | 205 | 0.9 | 7.0 | 0.00 | 0.00 | 0.00 | 45 | 1009.9 |
| 20260505222325 | 76 | 20 | 4.3 | 7.0 | 0.00 | 0.00 | 0.00 | 43 | 1009.9 |
| 20260505221854 | 76 | 340 | 3.5 | 5.2 | 0.00 | 0.00 | 0.00 | 45 | 1009.9 |
| 20260505221324 | 77 | 266 | 1.7 | 7.8 | 0.00 | 0.00 | 0.00 | 45 | 1009.9 |
| 20260505220835 | 77 | 7 | 2.6 | 7.8 | 0.00 | 0.00 | 0.00 | 46 | 1010.1 |
| 20260505220326 | 77 | 35 | 2.6 | 5.2 | 0.00 | 0.00 | 0.00 | 43 | 1010.2 |
| 20260505215819 | 77 | 6 | 0.9 | 7.0 | 0.00 | 0.00 | 0.00 | 43 | 1010.2 |
| 20260505215329 | 77 | 275 | 1.7 | 7.0 | 0.00 | 0.00 | 0.00 | 41 | 1010.2 |
| 20260505214840 | 77 | 255 | 1.7 | 5.2 | 0.00 | 0.00 | 0.00 | 39 | 1010.2 |
| 20260505214319 | 76 | 346 | 0.9 | 5.2 | 0.00 | 0.00 | 0.00 | 45 | 1010.4 |
| 20260505213830 | 76 | 23 | 1.7 | 7.0 | 0.00 | 0.00 | 0.00 | 42 | 1010.4 |
| 20260505213321 | 75 | 358 | 2.6 | 7.0 | 0.00 | 0.00 | 0.00 | 44 | 1010.5 |
| 20260505212828 | 75 | 18 | 1.7 | 6.1 | 0.00 | 0.00 | 0.00 | 46 | 1010.5 |
| 20260505212317 | 75 | 11 | 0.9 | 3.5 | 0.00 | 0.00 | 0.00 | 49 | 1010.6 |
| 20260505211828 | 74 | 269 | 1.7 | 3.5 | 0.00 | 0.00 | 0.00 | 46 | 1010.6 |
| 20260505211341 | 74 | 47 | 0.9 | 4.3 | 0.00 | 0.00 | 0.00 | 49 | 1010.7 |
| 20260505210829 | 75 | 103 | 0.9 | 4.3 | 0.00 | 0.00 | 0.00 | 46 | 1010.8 |
| 20260505210319 | 74 | 8 | 1.7 | 5.2 | 0.00 | 0.00 | 0.00 | 50 | 1010.8 |
| 20260505205846 | 74 | 346 | 2.6 | 4.3 | 0.00 | 0.00 | 0.00 | 47 | 1010.8 |
| 20260505205335 | 75 | 344 | 0.9 | 2.6 | 0.00 | 0.00 | 0.00 | 48 | 1010.8 |
| 20260505204826 | 74 | 265 | 0.9 | 3.5 | 0.00 | 0.00 | 0.00 | 51 | 1011.0 |
| 20260505204342 | 73 | 20 | 0.9 | 8.7 | 0.00 | 0.00 | 0.00 | 50 | 1011.0 |
| 20260505203830 | 73 | 106 | 0.9 | 8.7 | 0.00 | 0.00 | 0.00 | 50 | 1011.0 |
| 20260505203323 | 73 | 345 | 1.7 | 5.2 | 0.00 | 0.00 | 0.00 | 53 | 1011.1 |
| 20260505202830 | 73 | 277 | 0.9 | 5.2 | 0.00 | 0.00 | 0.00 | 52 | 1011.2 |
| 20260505202320 | 72 | 151 | 0.9 | 5.2 | 0.00 | 0.00 | 0.00 | 53 | 1011.3 |
| 20260505201831 | 72 | 19 | 1.7 | 7.0 | 0.00 | 0.00 | 0.00 | 54 | 1011.3 |
| 20260505201324 | 71 | 26 | 2.6 | 7.0 | 0.00 | 0.00 | 0.00 | 52 | 1011.4 |
| 20260505200832 | 70 | 38 | 2.6 | 7.0 | 0.00 | 0.00 | 0.00 | 54 | 1011.5 |
| 20260505200322 | 70 | 22 | 1.7 | 7.0 | 0.00 | 0.00 | 0.00 | 56 | 1011.6 |
| 20260505195830 | 69 | 9 | 3.5 | 7.0 | 0.00 | 0.00 | 0.00 | 54 | 1011.6 |
| 20260505195340 | 69 | 36 | 3.5 | 7.0 | 0.00 | 0.00 | 0.00 | 54 | 1011.6 |
| 20260505194828 | 70 | 83 | 3.5 | 7.0 | 0.00 | 0.00 | 0.00 | 55 | 1011.6 |
| 20260505194323 | 70 | 10 | 1.7 | 7.0 | 0.00 | 0.00 | 0.00 | 53 | 1011.7 |
| 20260505193833 | 70 | 24 | 2.6 | 7.0 | 0.00 | 0.00 | 0.00 | 55 | 1011.7 |
| 20260505193325 | 70 | 12 | 2.6 | 4.3 | 0.00 | 0.00 | 0.00 | 55 | 1011.8 |
| 20260505192818 | 70 | 28 | 0.9 | 5.2 | 0.00 | 0.00 | 0.00 | 56 | 1011.8 |
| 20260505192328 | 69 | 300 | 1.7 | 5.2 | 0.00 | 0.00 | 0.00 | 55 | 1011.8 |
| 20260505191839 | 69 | 340 | 1.7 | 5.2 | 0.00 | 0.00 | 0.00 | 58 | 1011.9 |
| 20260505191331 | 69 | 11 | 2.6 | 4.3 | 0.00 | 0.00 | 0.00 | 56 | 1011.9 |
| 20260505190822 | 69 | 68 | 0.9 | 3.5 | 0.00 | 0.00 | 0.00 | 56 | 1011.9 |
| 20260505190331 | 68 | 28 | 1.7 | 5.2 | 0.00 | 0.00 | 0.00 | 58 | 1011.9 |
| 20260505185821 | 68 | 328 | 1.7 | 5.2 | 0.00 | 0.00 | 0.00 | 58 | 1012.0 |
| 20260505185332 | 68 | 326 | 0.9 | 4.3 | 0.00 | 0.00 | 0.00 | 58 | 1012.1 |
| 20260505184821 | 67 | 354 | 0.9 | 4.3 | 0.00 | 0.00 | 0.00 | 59 | 1012.1 |
| 20260505184325 | 68 | 6 | 2.6 | 5.2 | 0.00 | 0.00 | 0.00 | 57 | 1012.2 |
| 20260505183834 | 67 | 24 | 0.9 | 4.3 | 0.00 | 0.00 | 0.00 | 61 | 1012.2 |
| 20260505183329 | 67 | 232 | 1.7 | 4.3 | 0.00 | 0.00 | 0.00 | 57 | 1012.2 |
| 20260505182823 | 67 | 355 | 1.7 | 2.6 | 0.00 | 0.00 | 0.00 | 61 | 1012.3 |
| 20260505182333 | 66 | 286 | 0.9 | 2.6 | 0.00 | 0.00 | 0.00 | 60 | 1012.3 |
| 20260505181823 | 66 | 179 | 0.9 | 2.6 | 0.00 | 0.00 | 0.00 | 60 | 1012.2 |
| 20260505181330 | 66 | 213 | 0.9 | 4.3 | 0.00 | 0.00 | 0.00 | 58 | 1012.3 |
| 20260505180839 | 66 | 23 | 1.7 | 4.3 | 0.00 | 0.00 | 0.00 | 61 | 1012.3 |
| 20260505180328 | 66 | 41 | 0.9 | 3.5 | 0.00 | 0.00 | 0.00 | 65 | 1012.4 |
| 20260505175819 | 65 | 358 | 0.9 | 4.3 | 0.00 | 0.00 | 0.00 | 64 | 1012.4 |
| 20260505175329 | 64 | 128 | 0.9 | 4.3 | 0.00 | 0.00 | 0.00 | 61 | 1012.5 |
| 20260505174818 | 64 | 180 | 0.9 | 2.6 | 0.00 | 0.00 | 0.00 | 66 | 1012.5 |
| 20260505174324 | 63 | 188 | 0.9 | 1.7 | 0.00 | 0.00 | 0.00 | 64 | 1012.5 |
| 20260505173835 | 64 | 290 | 0.9 | 2.6 | 0.00 | 0.00 | 0.00 | 64 | 1012.5 |
| 20260505173329 | 63 | 274 | 0.9 | 2.6 | 0.00 | 0.00 | 0.00 | 67 | 1012.5 |
| 20260505172821 | 62 | 275 | 0.9 | 2.6 | 0.00 | 0.00 | 0.00 | 70 | 1012.5 |
| 20260505172331 | 62 | 171 | 0.9 | 3.5 | 0.00 | 0.00 | 0.00 | 69 | 1012.5 |
| 20260505171821 | 62 | 15 | 1.7 | 3.5 | 0.00 | 0.00 | 0.00 | 67 | 1012.6 |
| 20260505171354 | 63 | 9 | 0.9 | 3.5 | 0.00 | 0.00 | 0.00 | 67 | 1012.6 |
| 20260505170842 | 62 | 182 | 0.9 | 3.5 | 0.00 | 0.00 | 0.00 | 70 | 1012.6 |
| 20260505170329 | 62 | 3 | 0.9 | 3.5 | 0.00 | 0.00 | 0.00 | 70 | 1012.6 |
| 20260505165822 | 62 | 17 | 1.7 | 3.5 | 0.00 | 0.00 | 0.00 | 73 | 1012.7 |
| 20260505165330 | 61 | 71 | 1.7 | 3.5 | 0.00 | 0.00 | 0.00 | 72 | 1012.7 |
| 20260505164820 | 61 | 283 | 0.9 | 2.6 | 0.00 | 0.00 | 0.00 | 71 | 1012.8 |
| 20260505164335 | 61 | 330 | 0.9 | 2.6 | 0.00 | 0.00 | 0.00 | 73 | 1012.8 |
| 20260505163825 | 60 | 312 | 0.9 | 1.7 | 0.00 | 0.00 | 0.00 | 73 | 1012.8 |
| 20260505163335 | 60 | 339 | 0.0 | 2.6 | 0.00 | 0.00 | 0.00 | 75 | 1012.8 |
| 20260505162849 | 59 | 332 | 0.9 | 2.6 | 0.00 | 0.00 | 0.00 | 75 | 1012.7 |
| 20260505162322 | 59 | 320 | 0.9 | 1.7 | 0.00 | 0.00 | 0.00 | 75 | 1012.7 |
| 20260505161852 | 58 | 305 | 0.9 | 1.7 | 0.00 | 0.00 | 0.00 | 76 | 1012.8 |
| 20260505161323 | 58 | 354 | 0.9 | 1.7 | 0.00 | 0.00 | 0.00 | 75 | 1012.8 |
| 20260505160833 | 57 | 309 | 0.0 | 1.7 | 0.00 | 0.00 | 0.00 | 76 | 1012.8 |
| 20260505160324 | 57 | 18 | 0.9 | 2.6 | 0.00 | 0.00 | 0.00 | 78 | 1012.9 |
| 20260505153318 | 56 | 295 | 0.0 | 0.0 | 0.00 | 0.00 | 0.00 | 81 | 1012.8 |
| 20260505152850 | 55 | 295 | 0.0 | 0.9 | 0.00 | 0.00 | 0.00 | 81 | 1012.8 |
| 20260505152318 | 55 | 295 | 0.0 | 0.9 | 0.00 | 0.00 | 0.00 | 83 | 1012.8 |
| 20260505151827 | 55 | 295 | 0.0 | 0.9 | 0.00 | 0.00 | 0.00 | 83 | 1012.8 |
| 20260505151322 | 55 | 295 | 0.0 | 0.9 | 0.00 | 0.00 | 0.00 | 83 | 1012.7 |
| 20260505150831 | 55 | 295 | 0.0 | 0.9 | 0.00 | 0.00 | 0.00 | 84 | 1012.7 |
| 20260505150324 | 54 | 295 | 0.0 | 0.9 | 0.00 | 0.00 | 0.00 | 84 | 1012.7 |
| 20260505140331 | 52 | 295 | 0.0 | 0.9 | 0.00 | 0.00 | 0.00 | 87 | 1012.3 |
| 20260505124821 | 52 | 295 | 0.0 | 0.9 | 0.00 | 0.00 | 0.00 | 88 | 1011.7 |
| 20260505124317 | 52 | 295 | 0.0 | 0.9 | 0.00 | 0.00 | 0.00 | 88 | 1011.6 |
| 20260505123827 | 52 | 340 | 0.0 | 0.9 | 0.00 | 0.00 | 0.00 | 88 | 1011.6 |
| 20260505123318 | 52 | 343 | 0.0 | 0.9 | 0.00 | 0.00 | 0.00 | 88 | 1011.6 |
| 20260505122823 | 52 | 356 | 0.0 | 0.9 | 0.00 | 0.00 | 0.00 | 88 | 1011.5 |
| 20260505122351 | 52 | 3 | 0.0 | 0.0 | 0.00 | 0.00 | 0.00 | 89 | 1011.5 |
| 20260505121818 | 52 | 3 | 0.0 | 0.0 | 0.00 | 0.00 | 0.00 | 89 | 1011.5 |
| 20260505121343 | 51 | 3 | 0.0 | 0.0 | 0.00 | 0.00 | 0.00 | 88 | 1011.4 |
| 20260505120851 | 51 | 3 | 0.0 | 0.0 | 0.00 | 0.00 | 0.00 | 88 | 1011.4 |
| 20260505120320 | 51 | 3 | 0.0 | 0.0 | 0.00 | 0.00 | 0.00 | 88 | 1011.3 |
| 20260505115825 | 51 | 3 | 0.0 | 0.0 | 0.00 | 0.00 | 0.00 | 89 | 1011.3 |
| 20260505115334 | 51 | 3 | 0.0 | 0.0 | 0.00 | 0.00 | 0.00 | 89 | 1011.2 |
| 20260505114828 | 51 | 3 | 0.0 | 0.0 | 0.00 | 0.00 | 0.00 | 89 | 1011.2 |
| 20260505114320 | 51 | 3 | 0.0 | 0.0 | 0.00 | 0.00 | 0.00 | 89 | 1011.2 |
| 20260505113829 | 51 | 3 | 0.0 | 0.0 | 0.00 | 0.00 | 0.00 | 89 | 1011.1 |
| 20260505113318 | 51 | 3 | 0.0 | 0.0 | 0.00 | 0.00 | 0.00 | 89 | 1011.1 |
| 20260505112831 | 50 | 3 | 0.0 | 0.0 | 0.00 | 0.00 | 0.00 | 89 | 1011.1 |
| 20260505112321 | 50 | 3 | 0.0 | 0.0 | 0.00 | 0.00 | 0.00 | 89 | 1011.1 |
| 20260505111831 | 50 | 3 | 0.0 | 0.0 | 0.00 | 0.00 | 0.00 | 89 | 1011.0 |
| 20260505111321 | 50 | 3 | 0.0 | 0.0 | 0.00 | 0.00 | 0.00 | 89 | 1011.0 |
| 20260505110850 | 50 | 3 | 0.0 | 0.0 | 0.00 | 0.00 | 0.00 | 89 | 1011.0 |
| 20260505110319 | 50 | 3 | 0.0 | 0.0 | 0.00 | 0.00 | 0.00 | 89 | 1011.0 |
| 20260505101816 | 50 | 3 | 0.0 | 0.0 | 0.00 | 0.01 | 0.00 | 88 | 1010.8 |
| 20260505101331 | 50 | 3 | 0.0 | 0.0 | 0.00 | 0.01 | 0.00 | 88 | 1010.8 |
| 20260505100821 | 50 | 3 | 0.0 | 0.0 | 0.00 | 0.01 | 0.00 | 87 | 1010.7 |
| 20260505100350 | 50 | 3 | 0.0 | 0.0 | 0.00 | 0.01 | 0.00 | 87 | 1010.7 |
| 20260505095841 | 51 | 3 | 0.0 | 0.0 | 0.00 | 0.01 | 0.00 | 86 | 1010.8 |
| 20260505095330 | 51 | 3 | 0.0 | 0.0 | 0.00 | 0.01 | 0.00 | 86 | 1010.8 |
| 20260505094820 | 51 | 3 | 0.0 | 0.0 | 0.00 | 0.01 | 0.00 | 85 | 1010.8 |
| 20260505094318 | 52 | 3 | 0.0 | 0.9 | 0.00 | 0.01 | 0.00 | 86 | 1010.8 |
| 20260505093828 | 52 | 3 | 0.0 | 0.9 | 0.00 | 0.01 | 0.00 | 85 | 1010.7 |
| 20260505093318 | 52 | 3 | 0.0 | 0.9 | 0.00 | 0.01 | 0.00 | 85 | 1010.8 |
| 20260505092832 | 52 | 3 | 0.0 | 0.9 | 0.00 | 0.01 | 0.00 | 85 | 1010.8 |
| 20260505092322 | 52 | 3 | 0.0 | 0.9 | 0.00 | 0.01 | 0.00 | 84 | 1010.8 |
| 20260505091831 | 52 | 3 | 0.0 | 1.7 | 0.00 | 0.01 | 0.00 | 85 | 1010.8 |
| 20260505091324 | 52 | 3 | 0.9 | 1.7 | 0.00 | 0.01 | 0.00 | 84 | 1010.7 |
| 20260505090854 | 52 | 295 | 0.0 | 1.7 | 0.00 | 0.01 | 0.00 | 84 | 1010.7 |
| 20260505090322 | 52 | 243 | 0.0 | 1.7 | 0.00 | 0.01 | 0.00 | 84 | 1010.7 |
| 20260505085829 | 52 | 215 | 0.0 | 0.9 | 0.00 | 0.01 | 0.00 | 84 | 1010.7 |
| 20260505085358 | 53 | 215 | 0.0 | 0.9 | 0.00 | 0.01 | 0.00 | 83 | 1010.7 |
| 20260505084827 | 53 | 217 | 0.0 | 1.7 | 0.00 | 0.01 | 0.00 | 83 | 1010.7 |
| 20260505084340 | 53 | 214 | 0.0 | 1.7 | 0.00 | 0.01 | 0.00 | 83 | 1010.7 |
| 20260505083829 | 53 | 214 | 0.0 | 0.9 | 0.00 | 0.01 | 0.00 | 82 | 1010.6 |
| 20260505083322 | 54 | 254 | 0.0 | 0.9 | 0.00 | 0.01 | 0.00 | 82 | 1010.6 |
| 20260505082827 | 54 | 254 | 0.0 | 0.9 | 0.00 | 0.01 | 0.00 | 81 | 1010.6 |
| 20260505082335 | 54 | 254 | 0.0 | 1.7 | 0.00 | 0.01 | 0.00 | 81 | 1010.6 |
| 20260505081824 | 54 | 254 | 0.0 | 1.7 | 0.00 | 0.01 | 0.00 | 80 | 1010.6 |
| 20260505081330 | 55 | 295 | 0.9 | 1.7 | 0.00 | 0.01 | 0.00 | 80 | 1010.5 |
| 20260505080820 | 55 | 326 | 0.9 | 2.6 | 0.00 | 0.01 | 0.00 | 79 | 1010.5 |
| 20260505080330 | 55 | 326 | 0.9 | 2.6 | 0.00 | 0.01 | 0.00 | 79 | 1010.5 |
| 20260505075824 | 55 | 357 | 0.9 | 2.6 | 0.00 | 0.01 | 0.00 | 79 | 1010.5 |
| 20260505075334 | 55 | 319 | 0.9 | 2.6 | 0.00 | 0.01 | 0.00 | 78 | 1010.4 |
| 20260505074824 | 56 | 360 | 0.9 | 2.6 | 0.00 | 0.01 | 0.00 | 78 | 1010.4 |
| 20260505074336 | 56 | 314 | 0.0 | 2.6 | 0.00 | 0.01 | 0.00 | 78 | 1010.4 |
| 20260505073845 | 56 | 312 | 0.9 | 2.6 | 0.00 | 0.01 | 0.00 | 78 | 1010.4 |
| 20260505073334 | 56 | 317 | 0.9 | 2.6 | 0.00 | 0.01 | 0.00 | 77 | 1010.3 |
| 20260505072829 | 56 | 30 | 0.9 | 2.6 | 0.00 | 0.01 | 0.00 | 77 | 1010.3 |
| 20260505072322 | 56 | 354 | 0.9 | 1.7 | 0.00 | 0.01 | 0.00 | 77 | 1010.3 |
| 20260505071853 | 57 | 317 | 0.9 | 3.5 | 0.00 | 0.01 | 0.00 | 77 | 1010.2 |
| 20260505071324 | 57 | 359 | 0.9 | 3.5 | 0.00 | 0.01 | 0.00 | 76 | 1010.2 |
| 20260505070835 | 57 | 1 | 1.7 | 3.5 | 0.00 | 0.01 | 0.00 | 76 | 1010.1 |
| 20260505070323 | 57 | 336 | 0.9 | 3.5 | 0.00 | 0.01 | 0.00 | 76 | 1010.1 |
| 20260505065848 | 57 | 1 | 1.7 | 3.5 | 0.00 | 0.01 | 0.01 | 76 | 1010.0 |
| 20260505065337 | 57 | 2 | 1.7 | 2.6 | 0.00 | 0.01 | 0.01 | 76 | 1009.9 |
| 20260505064827 | 57 | 354 | 0.9 | 2.6 | 0.00 | 0.01 | 0.01 | 75 | 1009.9 |
| 20260505064340 | 57 | 9 | 1.7 | 3.5 | 0.00 | 0.01 | 0.01 | 75 | 1009.8 |
| 20260505063831 | 58 | 8 | 1.7 | 3.5 | 0.00 | 0.01 | 0.01 | 74 | 1009.8 |
| 20260505063323 | 58 | 7 | 1.7 | 3.5 | 0.00 | 0.01 | 0.01 | 74 | 1009.7 |
| 20260505062837 | 58 | 9 | 0.9 | 2.6 | 0.00 | 0.01 | 0.01 | 73 | 1009.7 |
| 20260505062347 | 59 | 353 | 0.9 | 2.6 | 0.00 | 0.01 | 0.01 | 73 | 1009.6 |
| 20260505061820 | 59 | 300 | 0.9 | 2.6 | 0.00 | 0.01 | 0.01 | 73 | 1009.5 |
| 20260505061334 | 59 | 290 | 0.9 | 2.6 | 0.00 | 0.01 | 0.01 | 72 | 1009.5 |
| 20260505060824 | 59 | 305 | 0.9 | 2.6 | 0.00 | 0.01 | 0.01 | 72 | 1009.4 |
| 20260505060334 | 59 | 346 | 0.9 | 3.5 | 0.00 | 0.01 | 0.01 | 72 | 1009.4 |
| 20260505055828 | 59 | 288 | 0.9 | 4.3 | 0.00 | 0.01 | 0.01 | 72 | 1009.3 |